Wind_Speed
65 71 77 75 74 78 75 80 82 82 79 79 79 65 62 56 53 55 60 51 46 44 44 35 33 32 33 39 43 43 38 36 33 38 45 46 42 42 43 43 43 45 46 47 54 61 70
71 78 78 77 79 77 77 86 87 87 84 84 79 65 59 56 49 49 53 48 42 41 36 29 31 29 30 36 36 36 32 28 26 33 40 40 36 36 38 39 38 40 39 41 45 53 61
71 78 83 83 81 82 84 89 92 92 90 85 72 59 53 52 48 45 45 40 41 35 32 32 27 28 31 32 28 30 25 21 23 28 30 36 34 35 35 31 28 29 33 35 40 48 58
70 79 91 92 90 92 88 93 94 99 94 81 65 55 52 50 48 44 42 38 34 35 33 28 28 29 29 23 22 24 17 17 22 23 21 25 25 24 23 23 22 21 26 29 29 37 49
77 81 95 99 98 98 95 96 100 99 97 80 65 54 53 49 47 41 42 39 33 36 29 31 32 29 25 19 18 18 12 15 19 21 15 13 12 14 15 13 10 14 13 11 16 24 28
79 86 99 99 103 106 102 102 103 100 93 79 67 55 53 45 43 38 42 37 36 34 32 35 33 30 24 15 16 11 8 10 14 17 17 17 17 20 15 10 6 3 6 12 11 16 20
79 89 100 101 102 114 110 111 110 96 89 75 63 53 44 35 39 35 39 38 40 36 38 38 36 30 22 14 12 4 6 6 13 18 19 19 20 24 24 19 14 7 1 8 14 12 15
81 93 100 106 107 115 113 109 101 91 85 69 55 43 33 29 32 32 37 39 41 38 48 41 37 30 22 15 7 2 4 4 11 16 20 22 22 24 26 25 18 12 3 5 13 16 13
94 102 109 108 115 121 112 104 98 89 78 62 46 34 23 23 29 34 37 42 42 48 47 44 37 29 23 14 6 2 4 8 11 14 16 22 28 28 27 27 22 15 7 3 9 17 21
106 104 114 118 119 125 113 106 98 89 70 49 33 27 18 24 31 36 38 36 48 49 50 47 38 30 23 14 7 5 6 7 11 16 19 23 28 31 28 27 25 19 12 6 10 15 23
111 117 121 122 127 126 111 104 96 83 58 38 26 18 19 23 35 40 38 43 51 49 53 47 37 31 22 13 8 5 7 9 13 16 21 24 26 28 30 28 26 23 15 8 11 18 26
121 117 130 126 133 129 116 101 89 69 49 31 20 11 17 31 40 47 42 44 44 51 53 47 37 30 22 13 8 6 6 8 10 14 17 22 24 25 27 29 28 27 19 15 10 18 29
125 127 133 136 135 129 113 100 81 56 39 23 11 11 26 37 46 48 46 46 47 55 54 45 38 28 21 14 10 6 4 6 10 13 14 19 22 22 23 25 27 26 26 16 13 18 27
126 127 139 139 137 131 111 94 71 48 32 15 4 15 33 44 52 51 50 51 52 57 54 44 36 27 21 16 11 6 3 7 11 16 17 22 26 29 29 27 23 24 22 20 15 16 22
130 133 147 143 139 129 112 89 63 41 26 8 9 25 38 48 55 54 54 55 50 59 51 45 36 28 22 16 12 6 4 8 13 17 21 25 27 30 33 31 27 25 20 18 15 13 22
131 139 147 149 139 125 106 82 54 35 19 1 18 32 41 52 55 55 56 48 54 56 52 44 37 29 23 18 12 5 6 10 15 19 23 27 28 31 35 36 35 32 28 20 14 13 16
132 141 146 156 146 125 99 76 47 30 13 7 24 39 50 56 55 53 50 54 56 57 49 42 36 29 24 19 11 5 3 10 15 21 25 29 31 34 36 38 42 41 33 23 18 15 15
136 141 144 156 150 123 95 73 42 24 7 12 29 42 52 56 56 53 55 58 55 55 48 42 36 28 24 19 12 6 4 10 15 21 25 30 34 36 39 43 47 49 44 31 19 15 12
132 140 148 159 155 120 91 67 38 15 4 24 35 45 53 53 53 55 58 58 57 51 45 40 34 28 25 20 13 8 6 9 13 18 24 31 36 38 39 42 46 50 53 45 30 19 14
131 139 145 156 157 121 87 58 33 9 12 30 39 47 54 51 51 55 56 56 56 50 43 38 33 27 24 21 13 9 6 7 11 17 24 32 38 41 44 44 47 47 50 47 40 28 19
133 138 144 152 157 120 84 58 34 3 17 35 40 42 48 48 51 54 56 56 54 48 41 36 31 27 23 21 13 8 4 7 12 18 24 31 37 42 47 51 46 49 48 44 41 32 25
130 135 144 150 159 124 83 71 36 7 23 35 34 39 44 44 48 52 53 53 50 44 38 33 30 25 22 20 13 7 3 6 11 17 23 30 35 41 46 51 52 50 49 52 48 39 36
127 129 142 146 158 131 83 71 26 15 31 30 27 28 35 38 45 49 49 47 44 41 35 31 28 24 21 19 13 7 3 5 10 16 22 28 33 39 44 50 54 55 53 52 55 53 48
122 133 136 139 150 139 91 63 40 15 29 25 25 26 34 42 46 48 47 43 39 37 33 29 26 22 20 18 13 7 3 2 9 15 21 26 30 35 42 48 53 56 57 56 58 59 55
121 126 132 142 140 136 106 66 50 33 11 15 26 34 34 40 45 48 43 40 38 36 32 28 24 21 20 18 13 9 5 1 7 14 19 25 29 33 38 45 50 54 58 58 63 60 56
121 125 125 137 139 136 113 73 48 40 18 10 4 18 33 39 46 46 40 38 36 34 32 28 24 20 19 17 14 11 5 2 6 12 17 22 27 32 35 40 47 53 54 60 60 62 63
116 112 125 126 137 133 107 73 48 31 25 2 13 20 31 38 47 44 39 37 34 32 31 28 24 21 19 18 16 12 7 4 5 10 14 19 24 29 33 39 44 50 54 58 61 63 64
114 123 128 132 128 124 106 81 50 34 25 12 12 24 31 36 45 39 36 38 35 33 30 28 24 21 19 18 16 14 10 7 8 10 13 17 22 26 31 36 40 47 51 57 62 65 64
120 123 124 124 121 118 110 85 53 34 23 20 11 29 37 33 44 39 38 36 34 31 28 27 25 22 20 19 16 15 13 9 8 11 13 16 20 25 30 35 39 44 50 53 60 61 62
Wind_Direction
346 351 348 343 334 339 333 333 329 332 325 323 318 305 296 285 278 272 271 265 261 250 253 259 257 253 252 257 266 271 271 280 291 291 286 283 285 284 282 279 280 274 265 252 242 237 232
345 350 346 344 344 334 329 332 330 329 325 323 318 306 295 288 276 270 268 260 255 240 245 249 248 240 244 253 265 274 275 289 294 290 294 294 295 295 292 293 288 280 270 256 242 234 231
342 345 346 346 344 339 338 331 331 330 326 324 318 306 294 285 275 266 264 258 250 238 234 241 243 233 241 253 265 272 283 295 298 292 304 308 306 302 301 298 290 278 265 258 246 234 227
342 347 348 348 347 343 337 339 329 331 330 324 314 304 293 284 276 260 254 250 242 228 227 226 216 220 231 245 261 272 291 305 296 291 299 303 304 312 313 304 294 282 261 227 227 229 227
345 346 350 354 351 347 343 339 334 331 330 321 313 303 293 283 274 255 247 239 230 222 215 207 207 209 223 237 254 270 299 312 297 295 293 299 330 336 330 309 300 266 219 209 214 220 224
342 341 346 349 352 348 342 341 338 333 328 320 313 302 288 280 266 247 237 233 216 213 200 196 195 202 214 216 247 272 314 319 310 311 326 337 347 357 7 1 15 347 198 203 182 221 218
341 341 346 349 349 350 345 342 338 335 329 321 312 300 288 271 253 237 229 221 210 202 196 191 191 194 199 202 234 275 342 333 350 344 345 1 14 21 17 33 34 29 53 186 157 165 208
340 344 348 351 349 348 346 342 337 333 329 323 311 300 284 259 238 222 220 207 204 195 184 186 187 189 178 194 219 253 9 16 18 2 355 1 25 27 24 23 35 36 17 199 177 169 171
347 351 352 349 350 350 345 340 334 329 329 324 313 294 275 238 213 204 204 201 189 185 180 179 180 177 174 184 192 121 55 30 22 24 9 10 15 23 17 20 19 22 22 240 193 178 169
352 351 352 352 348 351 346 342 333 328 328 324 310 286 253 217 197 192 188 187 183 182 174 175 175 177 172 168 183 135 97 76 34 23 29 21 15 16 10 10 8 6 2 306 226 205 189
353 355 353 351 351 350 346 342 332 328 325 320 305 285 229 199 184 178 176 176 182 179 171 171 170 172 165 166 157 120 66 54 45 32 24 24 19 15 3 1 359 354 342 323 261 215 198
353 354 354 351 350 350 347 338 334 329 324 317 303 250 209 180 176 164 171 171 181 176 168 165 169 171 160 161 146 116 58 35 36 37 28 27 21 13 5 354 351 342 339 320 275 229 209
355 355 354 355 352 350 346 340 335 331 327 319 292 212 184 169 167 159 163 170 179 170 167 164 168 166 156 154 148 124 75 31 25 26 33 37 27 12 6 358 350 337 327 316 288 242 216
355 356 355 353 353 350 345 344 339 336 331 315 275 184 170 165 154 156 163 171 174 166 166 162 164 161 158 152 150 129 70 25 23 18 16 22 26 17 7 5 355 341 326 312 288 255 230
353 357 358 356 354 349 345 345 343 341 337 321 157 168 160 160 151 154 165 176 175 166 165 161 161 160 159 150 150 137 50 17 13 17 11 14 19 18 10 4 1 358 340 317 300 261 242
355 356 358 356 355 350 346 346 344 345 348 218 152 159 160 154 147 156 168 177 171 167 162 161 158 159 156 152 152 117 36 12 3 13 10 11 12 14 16 6 5 8 358 339 321 293 261
352 354 357 357 354 349 348 349 347 350 0 158 153 155 154 149 150 155 171 172 167 167 161 161 156 157 154 149 148 107 32 9 3 9 7 7 10 11 16 14 8 7 11 358 339 314 282
351 352 354 356 355 351 349 351 350 353 21 150 154 156 153 148 147 158 169 166 168 167 162 160 156 156 151 149 138 128 67 19 6 10 4 5 6 14 12 18 12 6 12 17 6 349 315
348 351 355 358 355 353 351 353 352 356 96 142 151 154 146 145 152 162 166 165 166 166 164 158 155 156 153 147 141 124 72 28 9 8 6 5 6 8 15 17 20 15 9 17 21 14 352
348 352 352 357 358 354 354 359 357 4 142 143 148 147 144 148 153 160 164 164 168 164 163 158 156 156 155 150 142 122 74 33 13 11 10 8 6 5 9 20 16 20 21 15 15 20 11
348 351 350 354 355 356 354 5 2 104 150 138 143 146 147 150 159 163 163 164 167 164 162 159 157 158 158 151 148 129 83 35 18 15 10 13 8 4 5 10 15 15 25 30 21 11 23
345 347 348 352 353 356 358 7 4 112 132 120 133 146 146 157 163 164 164 167 166 162 162 160 160 160 159 154 154 139 101 44 23 17 14 17 12 7 5 6 6 12 20 21 25 30 23
344 345 346 351 353 355 359 12 8 110 110 110 121 134 145 158 166 164 164 171 168 160 163 165 163 163 162 161 162 161 121 47 18 14 11 16 14 8 8 5 3 8 10 21 24 23 27
343 344 343 346 352 354 357 13 9 81 107 111 126 139 154 169 168 166 168 173 173 162 168 170 166 168 166 171 172 177 160 30 10 4 7 14 15 11 10 7 5 5 5 10 19 21 25
337 342 343 342 347 354 355 2 12 13 44 122 147 159 164 172 171 169 173 176 176 166 173 175 174 173 175 184 183 194 185 342 352 357 4 13 14 13 11 9 6 5 359 2 9 13 20
334 338 341 342 344 348 349 348 359 10 16 56 121 165 171 176 176 172 179 181 179 174 180 180 181 181 185 191 193 201 196 236 327 345 1 9 10 13 13 13 7 7 359 357 5 4 9
332 337 338 339 341 348 346 346 346 4 9 350 181 191 183 184 180 179 181 184 185 182 189 187 188 189 194 199 204 206 204 232 313 332 359 6 9 11 11 12 7 7 3 358 357 360 359
331 333 332 333 335 342 344 342 335 344 346 333 213 199 192 192 188 186 188 189 190 190 199 199 196 198 205 209 213 218 224 246 289 312 339 353 358 7 9 11 10 7 4 0 357 356 356
326 325 330 332 336 338 340 334 333 327 319 332 257 208 202 206 196 194 197 198 198 198 201 221 211 209 214 220 222 227 235 253 276 302 323 342 349 1 8 11 11 9 5 4 0 356 355
Height
10691 10678 10667 10653 10638 10625 10616 10605 10591 10579 10567 10555 10540 10528 10517 10511 10508 10507 10505 10511 10518 10523 10529 10540 10548 10552 10554 10554 10555 10558 10562 10563 10563 10557 10550 10545 10542 10538 10534 10531 10526 10519 10520 10522 10523 10526 10533
10682 10671 10658 10644 10631 10616 10600 10588 10573 10561 10548 10534 10520 10510 10500 10495 10493 10492 10493 10499 10506 10509 10519 10531 10538 10542 10544 10546 10549 10552 10555 10557 10556 10551 10541 10535 10531 10525 10521 10517 10511 10504 10501 10501 10505 10510 10515
10673 10659 10647 10633 10618 10605 10588 10568 10555 10542 10526 10512 10500 10490 10483 10480 10480 10480 10481 10490 10495 10501 10511 10520 10530 10535 10538 10540 10545 10546 10550 10551 10549 10545 10538 10526 10521 10515 10509 10506 10500 10494 10490 10491 10493 10497 10504
10663 10649 10637 10622 10604 10589 10572 10558 10537 10522 10507 10494 10483 10474 10466 10463 10464 10468 10470 10479 10486 10492 10501 10514 10521 10527 10531 10536 10541 10541 10546 10545 10543 10540 10537 10526 10517 10508 10501 10494 10489 10485 10483 10484 10486 10489 10496
10653 10640 10625 10607 10590 10574 10558 10543 10525 10503 10487 10473 10463 10455 10447 10445 10446 10453 10458 10466 10478 10482 10494 10505 10513 10521 10527 10532 10536 10539 10541 10539 10536 10531 10530 10523 10513 10506 10497 10491 10486 10481 10479 10481 10483 10486 10493
10642 10629 10615 10594 10574 10559 10543 10526 10507 10488 10470 10454 10441 10433 10425 10427 10427 10437 10445 10454 10466 10475 10488 10497 10507 10516 10524 10528 10531 10536 10535 10535 10530 10525 10519 10513 10504 10498 10497 10489 10483 10480 10479 10479 10480 10486 10492
10634 10620 10601 10580 10558 10542 10525 10507 10488 10466 10448 10432 10418 10411 10405 10408 10410 10422 10433 10444 10454 10469 10481 10490 10501 10509 10519 10524 10529 10531 10530 10531 10526 10519 10513 10510 10502 10495 10493 10488 10482 10481 10482 10483 10481 10484 10490
10624 10608 10588 10567 10548 10530 10507 10484 10461 10439 10421 10409 10397 10391 10390 10391 10398 10410 10423 10434 10446 10462 10472 10485 10496 10507 10513 10519 10525 10526 10526 10527 10523 10518 10511 10506 10502 10497 10494 10490 10486 10484 10483 10483 10482 10483 10486
10611 10594 10575 10553 10534 10514 10490 10462 10437 10415 10398 10387 10378 10374 10376 10379 10387 10398 10412 10424 10441 10454 10466 10479 10493 10503 10509 10514 10520 10522 10523 10522 10520 10517 10511 10504 10498 10496 10495 10492 10488 10484 10482 10482 10483 10485 10487
10601 10578 10558 10536 10517 10494 10468 10440 10413 10392 10380 10371 10364 10361 10365 10369 10379 10390 10404 10419 10437 10450 10462 10475 10489 10501 10506 10512 10518 10518 10521 10520 10517 10514 10510 10505 10499 10495 10495 10492 10488 10485 10484 10482 10481 10482 10486
10588 10567 10545 10521 10498 10473 10448 10421 10395 10376 10366 10357 10352 10353 10356 10363 10373 10383 10400 10417 10434 10449 10459 10474 10486 10498 10503 10510 10515 10515 10517 10516 10516 10513 10509 10505 10501 10496 10494 10490 10487 10485 10483 10480 10480 10481 10483
10580 10554 10531 10507 10482 10457 10434 10407 10381 10365 10354 10347 10344 10346 10351 10356 10369 10378 10396 10417 10434 10450 10461 10473 10486 10495 10501 10508 10511 10514 10516 10515 10515 10514 10510 10507 10502 10498 10494 10488 10484 10481 10480 10477 10477 10476 10478
10570 10546 10523 10495 10470 10444 10420 10391 10370 10355 10345 10340 10339 10341 10347 10354 10368 10379 10397 10418 10436 10449 10461 10474 10486 10494 10500 10506 10510 10513 10515 10514 10513 10513 10511 10508 10504 10500 10495 10490 10482 10477 10472 10472 10470 10470 10472
10563 10540 10514 10489 10462 10436 10407 10383 10362 10349 10340 10335 10337 10340 10346 10355 10365 10380 10400 10419 10436 10450 10463 10475 10487 10494 10501 10505 10509 10513 10514 10513 10513 10511 10509 10506 10503 10497 10490 10486 10482 10475 10467 10463 10462 10462 10465
10556 10533 10510 10484 10454 10426 10397 10375 10358 10346 10338 10336 10337 10342 10349 10359 10366 10384 10404 10421 10437 10451 10464 10475 10485 10493 10501 10504 10509 10512 10512 10512 10511 10511 10508 10504 10500 10497 10490 10484 10478 10471 10464 10457 10453 10453 10454
10546 10528 10505 10480 10449 10421 10393 10371 10354 10345 10339 10340 10339 10345 10353 10362 10374 10390 10407 10423 10440 10454 10467 10477 10484 10493 10500 10504 10510 10511 10511 10509 10509 10510 10507 10502 10498 10495 10489 10480 10473 10467 10459 10451 10446 10444 10444
10544 10522 10501 10476 10446 10416 10389 10369 10353 10346 10342 10342 10343 10351 10359 10365 10379 10394 10411 10430 10444 10458 10469 10478 10485 10494 10500 10505 10509 10511 10511 10510 10509 10508 10505 10502 10499 10491 10486 10477 10468 10462 10456 10448 10441 10438 10435
10539 10520 10500 10472 10443 10414 10386 10370 10356 10350 10346 10346 10350 10357 10363 10372 10386 10402 10420 10434 10448 10460 10471 10478 10486 10495 10499 10506 10510 10512 10512 10511 10510 10508 10506 10501 10496 10490 10481 10476 10466 10456 10451 10447 10440 10434 10431
10539 10521 10498 10475 10446 10416 10389 10372 10362 10356 10353 10352 10359 10366 10375 10384 10395 10410 10426 10440 10454 10463 10474 10480 10487 10495 10501 10506 10511 10513 10513 10512 10511 10509 10506 10501 10496 10491 10484 10475 10470 10458 10445 10441 10438 10434 10430
10538 10518 10500 10479 10452 10426 10400 10379 10367 10364 10361 10362 10369 10379 10384 10395 10406 10420 10434 10447 10458 10467 10476 10483 10490 10496 10501 10507 10511 10513 10513 10513 10512 10510 10506 10502 10494 10488 10481 10475 10468 10463 10452 10440 10434 10433 10427
10534 10517 10497 10482 10461 10432 10410 10392 10377 10375 10371 10373 10381 10388 10396 10406 10418 10430 10441 10453 10463 10472 10480 10486 10492 10498 10503 10508 10512 10514 10514 10514 10512 10510 10506 10502 10495 10489 10481 10474 10470 10462 10455 10449 10440 10429 10428
10538 10520 10500 10486 10464 10441 10419 10401 10394 10391 10388 10393 10399 10404 10410 10421 10429 10440 10451 10461 10468 10476 10484 10490 10494 10499 10504 10509 10512 10514 10515 10515 10513 10511 10507 10503 10497 10491 10482 10476 10468 10463 10455 10448 10443 10437 10427
10542 10521 10507 10495 10476 10455 10438 10421 10418 10412 10406 10411 10416 10423 10429 10436 10445 10454 10463 10471 10477 10482 10489 10494 10497 10501 10505 10509 10512 10514 10515 10515 10514 10511 10508 10504 10499 10492 10484 10477 10467 10459 10455 10449 10442 10430 10425
10545 10528 10510 10499 10487 10472 10461 10448 10444 10431 10422 10426 10431 10438 10443 10449 10457 10465 10472 10478 10484 10487 10493 10498 10500 10503 10506 10510 10513 10515 10515 10515 10514 10512 10508 10504 10500 10494 10486 10477 10468 10460 10454 10446 10441 10435 10427
10548 10533 10517 10500 10500 10481 10478 10466 10456 10455 10451 10443 10443 10446 10452 10460 10466 10472 10479 10484 10489 10492 10497 10501 10504 10506 10508 10511 10514 10516 10516 10516 10515 10512 10509 10505 10500 10495 10489 10479 10471 10462 10453 10447 10438 10437 10429
10548 10539 10523 10510 10507 10498 10490 10480 10473 10471 10467 10464 10466 10466 10466 10470 10474 10478 10484 10490 10494 10496 10500 10503 10506 10508 10510 10512 10514 10516 10517 10516 10515 10513 10510 10506 10501 10496 10491 10483 10474 10465 10456 10445 10438 10431 10425
10546 10539 10528 10519 10508 10507 10494 10493 10487 10480 10479 10477 10475 10477 10478 10479 10482 10484 10487 10493 10498 10500 10503 10505 10507 10509 10511 10513 10514 10516 10516 10516 10516 10513 10511 10507 10503 10497 10491 10484 10475 10466 10457 10445 10438 10432 10424
10542 10535 10528 10522 10514 10515 10508 10503 10490 10483 10484 10484 10483 10482 10483 10486 10488 10490 10493 10496 10499 10501 10504 10506 10508 10510 10512 10513 10513 10514 10515 10515 10515 10513 10510 10507 10503 10498 10491 10485 10477 10467 10459 10447 10438 10428 10420
10538 10528 10527 10520 10513 10510 10514 10503 10498 10487 10484 10486 10487 10486 10486 10489 10491 10492 10495 10498 10500 10502 10505 10508 10508 10509 10511 10512 10513 10513 10513 10513 10513 10512 10508 10505 10502 10497 10491 10484 10477 10469 10461 10452 10441 10431 10418